Location: Anglesey
(53.1800°N, 4.2200°W)
Time: 19:46:19
(UTC+00:00)

Envisat - Pass Details

Date: 08 October 2017
Orbit: 764 x 766 km, 98.2° (Epoch: 23 February)

Event Time Altitude Azimuth Distance (km) Brightness Sun altitude
Exits shadow 20:40:43 22° 156° (SSE) 1,621 4.3 -19.2°
Maximum altitude 20:44:02 79° 72° (ENE) 786 2.9 -19.7°
Drops below altitude 10° 20:49:09 10° 347° (NNW) 2,316 5.9 -20.5°
Sets 20:51:28 0° 346° (NNW) 3,247 6.7 -20.8°
